Location: ??????????
(48.4699°N, 37.9573°E)
Time: 20:16:16
(UTC+00:00)

USA 281 - Pass Details

Date: 20 January 2021
Orbit: 1072 x 1086 km, 106.0° (Epoch: 26 February)

Event Time Altitude Azimuth Distance (km) Brightness Sun altitude
Exits shadow 17:56:29 32° 344° (NNW) 1,775 4.4 -37.3°
Drops below altitude 10° 17:59:48 10° 338° (NNW) 2,941 5.8 -37.9°
Sets 18:02:19 0° 336° (NNW) 3,900 6.6 -38.3°
